Location: ?????
(44.4284°N, 135.2222°E)
Time: 14:52:39
(UTC+00:00)

Meteor 1-10 Rocket - Pass Details

Date: 19 May 2025
Orbit: 833 x 910 km, 81.3° (Epoch: 21 June)

Event Time Altitude Azimuth Distance (km) Brightness Sun altitude
Exits shadow 13:22:17 46° 171° (S) 1,206 4.5 -22.2°
Maximum altitude 13:24:07 75° 98° (E) 936 4.2 -22.4°
Drops below altitude 10° 13:29:59 10° 14° (NNE) 2,571 7.4 -22.8°
Sets 13:32:26 0° 13° (NNE) 3,504 8.3 -22.9°
